User: anonymous   Login
Location: Unspecified
(0.0000°N, 0.0000°E)
Time: 04:49:25
(UTC+00:00)
Language:

P83-1 Hilat - Orbit

View from above orbital plane
View from above orbital plane
View from above satellite
View from above satellite

Ground track
Ground track

The orbit data is extracted from the following two-line orbital elements,

1 14154U 83063A   18343.93603705 +.00000092 +00000-0 +25835-4 0  9995
2 14154 082.0243 187.5791 0039846 314.8706 160.7668 14.36378070853147
Epoch (UTC): 09 December 2018 22:27:53
Eccentricity: 0.0039846
inclination: 82.0243°
perigee height: 742 km
apogee height: 799 km
right ascension of ascending node: 187.5791°
argument of perigee: 314.8706°
revolutions per day: 14.36378070
mean anomaly at epoch: 160.7668°
orbit number at epoch: 85314

The dashed part of the orbit path shows where the satellite is in the earth's shadow,  

DLR